Hourly Data Report for July 02, 2021

CARIBOU POINT (AUT)
NOVA SCOTIA
Current Station Operator: ECCC - MSC

45°46'00.000" N
62°41'00.000" W
2.40 m
8200774
71415
WBK

Download Data

Hourly Data (July 2021)
Hourly Data Report for July 2, 2021
TIME
LST
Temp Definition
°C
Dew Point Definition
°C
Rel Hum Definition
%
Precip. Amount Definition
mm

Wind Dir Definition
10's deg

Wind Spd Definition
km/h
Visibility Definition
km
Stn Press Definition
kPa
Hmdx Definition


Wind Chill Definition


Weather Definition


00:00 14.2 13.6 97 0.0 32 19   101.07     LegendNANA
01:00 14.2 13.5 96 0.0 34 19   101.11     LegendNANA
02:00 13.8 12.8 93 0.0 35 18   101.12     LegendNANA
03:00 13.9 12.7 93 0.0 33 17   101.10     LegendNANA
04:00 13.8 12.7 93 0.0 33 21   101.14     LegendNANA
05:00 14.3 13.7 97 0.0 32 21   101.10     LegendNANA
06:00 13.6 13.0 97 0.0 18 16   101.22     LegendNANA
07:00 13.8 12.9 94 0.0 9 31   101.31     LegendNANA
08:00 13.7 12.3 91 0.0 9 28   101.35     LegendNANA
09:00 14.0 12.0 88 0.0 10 23   101.35     LegendNANA
10:00 14.2 12.6 90 0.0 9 21   101.32     LegendNANA
11:00 14.1 12.0 87 0.0 9 26   101.36     LegendNANA
12:00 14.1 12.7 92 0.0 8 26   101.37     LegendNANA
13:00 13.9 12.4 91 0.4 7 26   101.27     LegendNANA
14:00 13.8 12.4 91 0.6 7 30   101.24     LegendNANA
15:00 13.7 12.2 91 0.7 8 28   101.25     LegendNANA
16:00 13.7 12.4 92 0.6 7 28   101.26     LegendNANA
17:00 13.4 12.0 91 0.5 8 25   101.22     LegendNANA
18:00 13.2 12.0 92 0.2 9 25   101.25     LegendNANA
19:00 13.2 11.8 92 0.5 7 25   101.27     LegendNANA
20:00 13.0 11.6 91 0.0 7 27   101.25     LegendNANA
21:00 13.2 11.3 88 0.0 7 29   101.27     LegendNANA
22:00 13.3 10.9 86 0.0 8 28   101.25     LegendNANA
23:00 13.1 10.7 86 0.0 8 26   101.28     LegendNANA

Notes on Data Quality.

Legend

  • E = Estimated
  • M = Missing
  • NA = Not Available*
  • [empty] = Indicates an unobserved value
Date modified: